Location: El Escorial
(40.5846°N, 4.1277°W)
Time: 16:20:36
(UTC+00:00)

Daily predictions for brighter satellites

Satellite Brightness Start Highest point End
(mag) Time Altitude Azimuth Time Altitude Azimuth Time Altitude Azimuth
BREEZE-M DEB (TANK) 3.0 19:49:01 10° NW 19:51:32 36° NNE 19:56:38 10° E
CZ-4 R/B 3.9 19:50:53 10° SSW 19:54:22 25° W 19:57:51 10° NW
Cosmos 2322 Rocket 3.0 19:49:16 10° N 19:54:23 34° ENE 19:59:26 10° ESE
Cosmos 923 Rocket 4.1 19:52:32 10° S 19:57:45 60° ESE 20:03:01 10° NNE
OBJECT-B 0.7 19:55:34 10° SSE 19:58:46 78° ENE 20:01:58 10° N
SL-12 R/B (Aux Motor) 4.5 20:00:27 10° NW 20:02:32 57° NNE 20:06:53 10° ESE
BREEZE-M DEB (TANK) 3.9 20:01:01 10° NW 20:03:59 50° NNE 20:12:08 10° ESE
SJ-6B 2.6 20:01:43 10° SSE 20:05:25 78° ENE 20:09:11 10° N
Cosmos 2219 Rocket 4.3 20:03:53 10° NNE 20:05:39 11° NE 20:07:25 10° ENE
Resurs 1-3 4.1 20:01:47 10° SE 20:05:55 44° ENE 20:10:06 10° N
Atlas Centaur 2 3.8 20:04:39 10° WSW 20:08:07 17° SSW 20:11:09 10° SSE
USA 276 2.9 20:05:54 10° WNW 20:08:56 43° SW 20:11:55 10° SSE
Cosmos 371 Rocket 4.1 20:06:13 10° NNW 20:10:53 52° WSW 20:15:33 10° S
ATLAS 5 CENTAUR R/B 4.4 20:08:31 10° N 20:11:13 14° NE 20:14:06 10° ENE
USA 186 2.5 20:10:04 10° S 20:12:46 43° W 20:15:19 10° NNW
Cosmos 1092 Rocket 4.1 20:13:16 10° S 20:19:26 64° E 20:25:42 10° NNE
NOSS 2-1 (E) 2.7 20:16:24 10° SSW 20:19:46 75° ESE 20:23:03 10° NE
Cosmos 2026 Rocket 4.2 20:17:02 10° SSE 20:23:08 54° E 20:29:11 10° NNE
IGS 5A 4.0 20:23:13 13° SE 20:26:35 40° ENE 20:30:30 10° N
SL-16 R/B 2.2 20:22:24 10° NNW 20:28:07 83° ENE 20:33:33 11° SSE
Meteor 2-15 Rocket 4.4 20:22:18 10° N 20:28:22 70° E 20:34:24 10° SSE
Cosmos 1680 Rocket 3.5 20:24:54 10° SSW 20:30:11 88° ESE 20:35:28 10° NNE
GP-B 4.0 20:27:03 10° NNE 20:30:58 30° E 20:33:39 17° SE
Cosmos 2112 Rocket 4.0 20:26:44 10° SSW 20:32:01 78° ESE 20:37:17 10° NNE
Lacrosse 5 3.6 20:33:37 13° E 20:33:37 13° E 20:34:51 10° E
Meteor 1-26 Rocket 4.3 20:26:42 10° N 20:32:32 68° E 20:38:08 10° SSE
Cosmos 1151 Rocket 3.7 20:29:07 10° N 20:33:13 38° ENE 20:36:06 17° SE
ISS -0.8 20:33:15 10° WSW 20:33:36 10° SW 20:33:57 10° SW
Cosmos 1371 Rocket 4.5 20:28:38 10° N 20:33:49 47° ENE 20:37:42 17° SE
Okean 3 Rocket 4.0 20:30:45 10° SSE 20:35:00 44° E 20:39:19 10° NNE
Cosmos 1271 Rocket 2.7 20:33:14 10° N 20:37:16 88° ENE 20:41:02 11° S
ERS-2 2.0 20:39:45 10° NNE 20:43:24 81° ESE 20:47:01 10° SSW
COSMOS 2487 4.3 20:45:40 15° ENE 20:45:40 15° ENE 20:46:56 10° ENE
Cosmos 2237 4.3 20:40:36 10° NNW 20:46:19 68° ENE 20:50:20 20° SE
Cosmos 1428 Rocket 4.4 20:42:09 10° S 20:48:16 87° E 20:54:24 10° N
COSMOS 2455 3.1 20:44:36 10° S 20:50:17 46° ESE 20:56:00 10° NE
COSMOS 2428 4.3 20:46:42 10° N 20:50:53 20° NE 20:53:52 14° E
ATLAS 3B R/B 4.4 20:45:41 10° NW 20:51:46 30° WSW 20:58:01 10° SSW
GEOS 3 Rocket 4.4 20:47:20 10° NNE 20:52:24 56° NW 20:57:23 10° SW
Meteor 2-3 Rocket 4.4 20:49:35 10° SSW 20:55:09 57° WNW 21:00:50 10° N
Cosmos 220 Rocket 4.0 20:51:12 10° NNW 20:55:36 88° WSW 20:58:23 22° SSE
Terra 3.7 20:54:30 14° E 20:55:58 15° ENE 20:58:42 10° NNE
Ariane Rocket 3.3 20:51:17 10° S 20:56:17 64° WSW 21:01:20 10° NNW
Cosmos 1809 Rocket 4.4 20:50:19 10° S 20:56:24 68° E 21:02:29 10° NNE
Cosmos 292 Rocket 4.4 20:53:23 10° N 20:57:55 41° ENE 20:59:59 26° ESE
Cosmos 1328 Rocket 3.7 20:55:14 10° N 20:59:37 57° E 21:01:43 28° SSE
Cosmos 2360 Rocket 2.2 20:55:44 10° NNW 21:01:22 69° ENE 21:04:37 26° SE
Cosmos 1766 Rocket 3.5 20:57:10 10° S 21:01:32 87° W 21:05:55 10° N
SPOT 3 Rocket 3.5 20:59:52 21° SSE 21:03:24 79° ENE 21:08:38 10° N
Cosmos 1174 3.6 21:03:39 10° NNW 21:06:33 45° ENE 21:06:57 42° E
Resurs 01 Rocket 1.8 21:05:14 19° S 21:08:22 69° WSW 21:12:50 10° NNW
Cosmos 1624 Rocket 3.9 21:06:37 10° NNW 21:11:53 88° WSW 21:14:45 28° SSE
Cosmos 2266 Rocket 4.5 21:09:42 27° SE 21:12:16 39° E 21:18:01 10° NNE
Meteor 2-6 Rocket 4.1 21:08:29 10° N 21:13:52 68° E 21:16:31 30° SSE
Cosmos 1420 Rocket 4.0 21:11:36 10° NNW 21:16:54 68° ENE 21:19:08 35° SE
Cosmos 1812 2.6 21:14:05 10° N 21:17:58 84° E 21:19:06 44° SSE
Cosmos 1862 3.2 21:16:09 29° S 21:18:06 86° E 21:22:05 10° N
Cosmos 1553 Rocket 3.9 21:12:57 10° N 21:19:04 78° E 21:22:39 27° SSE
Landsat 7 4.2 21:16:55 20° S 21:20:06 59° W 21:24:49 10° NNW
Cosmos 1782 3.9 21:16:49 10° NNW 21:20:35 41° W 21:23:14 17° SSW
Meteor 2-21 Rocket 4.4 21:16:32 21° S 21:20:43 67° E 21:26:49 10° NNE
SL-27 R/B 4.0 21:17:33 10° SW 21:20:53 36° WNW 21:24:16 10° N
ERS-1 Rocket 3.7 21:20:14 32° ESE 21:21:37 38° ENE 21:26:15 10° N
Meteor 2-21 4.4 21:18:31 11° S 21:24:29 87° W 21:30:39 10° N
Cosmos 2228 Rocket 4.4 21:23:11 10° NNE 21:26:51 25° ENE 21:26:54 25° ENE
Cosmos 2297 Rocket 4.2 21:31:26 12° ENE 21:31:26 12° ENE 21:32:17 10° ENE
SPOT 5 3.0 21:31:58 42° E 21:32:32 45° ENE 21:36:48 10° N
JB-3 4.4 21:28:33 10° N 21:32:37 77° WNW 21:34:13 35° SSW
ARIANE 5 R/B 2.8 21:31:52 48° ESE 21:32:38 56° ENE 21:36:58 10° N
BREEZE-M DEB (TANK) 4.0 21:26:50 10° WNW 21:32:49 30° N 21:34:36 18° NE
Cosmos 2333 Rocket 2.3 21:31:12 10° NNW 21:36:50 65° ENE 21:38:33 43° SE
Cosmos 2322 Rocket 3.5 21:33:22 10° NW 21:38:21 33° WSW 21:41:54 17° SSW
Cosmos 2237 Rocket 4.0 21:34:49 10° N 21:38:40 18° NE 21:40:34 16° ENE
Cosmos 2322 3.8 21:34:07 10° NNW 21:39:49 65° ENE 21:41:30 45° SE
Cosmos 1500 Rocket 3.5 21:40:12 61° SE 21:40:35 64° E 21:45:00 10° NNE
Cosmos 2227 Rocket 4.4 21:44:49 10° ENE 21:44:49 10° ENE 21:45:01 10° ENE
Cosmos 1452 Rocket 3.7 21:38:15 10° NNW 21:43:27 58° ENE 21:44:29 48° ESE
Cosmos 2219 Rocket 2.2 21:45:06 10° NNW 21:50:41 68° ENE 21:51:54 53° ESE
Sich 1 4.3 21:53:27 29° ENE 21:53:27 29° ENE 21:56:12 10° NNE
Meteor 2-16 Rocket 4.4 21:50:06 29° SSW 21:53:24 81° W 21:59:32 10° N
S3M 4.0 21:47:15 10° N 21:53:41 85° W 21:56:13 40° S
USA 245 4.2 21:54:05 40° SW 21:54:58 46° WSW 21:58:34 10° NNW
Spot 2 Rocket 3.6 21:54:15 47° S 21:55:40 70° WSW 22:00:47 10° NNW
ATLAS 5 CENTAUR R/B 2.7 21:51:17 10° NNW 21:56:53 56° NE 21:58:38 43° ESE
SPOT 1/Viking Rocket 4.5 21:55:05 27° SSW 21:57:26 42° W 22:02:24 10° NNW
Meteor 1-27 Rocket 3.7 21:54:26 10° N 22:00:11 78° E 22:01:24 57° SSE
Cosmos 1743 Rocket 3.6 22:02:46 66° SW 22:03:13 73° W 22:07:38 10° N
CARTOSAT-1 4.2 22:06:15 44° WSW 22:06:46 47° W 22:10:57 10° NNW
Cosmos 1655 Rocket 4.3 22:04:01 28° SSW 22:07:34 68° W 22:13:57 10° N
Cosmos 494 Rocket 3.8 22:11:18 75° S 22:11:45 88° ESE 22:16:54 10° NNE
Lacrosse 5 1.8 22:12:21 38° SW 22:14:22 84° NW 22:19:28 10° NE
APEX 4.2 22:17:43 56° SSW 22:19:06 88° ESE 22:25:47 10° NNE
IRIDIUM 104 4.2 22:14:11 10° N 22:19:24 75° E 22:19:24 75° E
NOSS 3-1 (C) 4.5 22:17:51 10° NW 22:25:29 57° WSW 22:28:19 41° S
IRIDIUM 114 4.2 22:23:18 10° N 22:28:31 89° NNW 22:28:31 89° NNW
Cosmos 1244 Rocket 4.5 22:30:49 61° E 22:30:54 61° E 22:37:01 10° NNE
Terra 2.2 22:33:24 59° W 22:33:24 59° W 22:37:54 10° NNW
Meteor 1-25 Rocket 4.0 22:33:38 87° SSE 22:33:43 88° E 22:39:18 10° N
COSMOS 2428 2.8 22:30:01 10° NNW 22:35:38 64° WSW 22:35:52 63° SW
IRIDIUM 103 4.3 22:32:29 10° N 22:37:40 74° W 22:37:40 74° W
CZ-3B R/B 3.2 22:32:04 10° NW 22:39:31 40° NNE 22:39:48 39° NNE
Cosmos 2084 Rocket 4.4 22:35:51 10° NNW 22:38:56 46° NNW 22:38:56 46° NNW
USA 229 DEB 4.0 22:36:17 10° NW 22:43:40 67° WSW 22:45:02 57° SSW
USA 229 4.0 22:36:23 10° NW 22:43:46 68° WSW 22:45:07 58° SSW
Cosmos 2360 Rocket 4.3 22:41:29 10° WNW 22:44:42 16° W 22:46:23 14° WSW
Cosmos 2219 3.9 22:48:17 44° ENE 22:48:17 44° ENE 22:52:27 10° NNE
Meteor 1-18 Rocket 4.4 22:43:58 10° N 22:49:18 62° NE 22:49:18 62° NE
USA 267 4.2 22:44:37 10° ENE 22:48:10 31° E 22:48:10 31° E
Cosmos 1302 Rocket 4.5 22:53:10 10° NNW 22:57:32 54° NNE 22:57:32 54° NNE
SL-08 R/B 4.4 23:00:50 74° ENE 23:00:50 74° ENE 23:06:38 10° N
Meteor 1-19 Rocket 4.3 22:55:58 10° N 23:00:52 71° NNW 23:00:52 71° NNW
Cosmos 1980 3.8 22:56:17 10° NNW 23:01:24 71° N 23:01:24 71° N
Cosmos 909 Rocket 4.4 23:02:47 58° E 23:02:47 58° E 23:09:19 10° NE
NOSS 3-1 (A) 4.5 22:56:44 10° NW 23:04:20 53° WSW 23:05:42 49° SSW
Cosmos 2297 Rocket 2.4 23:13:12 68° NNW 23:13:12 68° NNW 23:18:19 10° NNE
Cosmos 2333 Rocket 4.2 23:16:59 10° WNW 23:20:29 17° W 23:20:33 17° W
ALOS 2 4.3 23:23:09 29° NNE 23:23:09 29° NNE 23:25:34 10° N
NOSS 0 Rocket 4.4 23:16:24 10° NW 23:21:52 49° W 23:21:52 49° W
Cosmos 2237 Rocket 2.6 23:17:39 10° NNW 23:22:23 60° NW 23:22:23 60° NW
Cosmos 2227 Rocket 2.6 23:26:37 61° N 23:26:37 61° N 23:31:19 10° NNE
Cosmos 2263 Rocket 4.3 23:33:28 15° ENE 23:33:28 15° ENE 23:35:00 10° NE
Cosmos 2219 Rocket 4.3 23:30:47 10° WNW 23:33:37 15° W 23:33:37 15° W
Cosmos 1745 Rocket 4.0 23:35:14 76° NNW 23:35:14 76° NNW 23:41:04 10° N
ATLAS 5 CENTAUR R/B 3.9 23:36:23 10° WNW 23:40:09 26° W 23:40:09 26° W
Nadezhda 1 Rocket 4.2 23:45:31 10° NNW 23:51:16 64° WNW 23:51:16 64° WNW
